Location: Avalon Gardens
(33.9572°N, 118.2631°W)
Time: 11:25:55
(UTC+00:00)

Daily predictions for brighter satellites

Satellite Brightness Start Highest point End
(mag) Time Altitude Azimuth Time Altitude Azimuth Time Altitude Azimuth
PSLV R/B 3.7 12:02:21 10° N 12:06:40 58° WNW 12:10:25 13° SSW
OAO 1 Rocket 4.4 12:03:32 19° W 12:07:30 90° ENE 12:12:53 10° E
OAO 3 Rocket 3.3 12:07:27 13° W 12:11:54 80° N 12:16:51 10° E
Hubble Space Telescope 2.1 12:09:58 16° SSW 12:12:20 26° SSE 12:15:49 10° ESE
ARIANE 5 R/B 4.5 12:10:01 10° NW 12:12:22 13° WNW 12:14:18 11° W
Cosmos 1844 Rocket 2.8 12:07:41 14° SW 12:12:24 61° WNW 12:17:55 10° NNE
H-2A R/B (2) 2.2 12:12:19 19° SW 12:13:42 29° S 12:17:22 10° ESE
Cosmos 2228 4.1 12:12:57 17° WSW 12:15:10 26° WNW 12:18:52 10° NNW
deb Chang Zheng 4 3.5 12:12:24 10° N 12:16:46 74° WNW 12:21:05 10° SSW
Atlas Centaur 2 3.1 12:11:46 16° WSW 12:17:48 63° S 12:26:05 10° E
SAR-Lupe-4 3.6 12:21:47 10° SSE 12:25:20 87° ENE 12:28:55 10° NNW
NOSS 2-2 (D) 3.4 12:24:01 13° SW 12:27:03 49° WNW 12:30:37 10° NNE
NOSS 2-2 (E) 3.9 12:24:39 14° WSW 12:27:22 36° NW 12:30:49 10° NNE
Cosmos 2058 Rocket 3.6 12:24:38 10° SSW 12:28:51 40° W 12:33:03 10° N
USA 267 3.3 12:25:16 10° SE 12:31:48 89° NE 12:38:23 10° NW
Lacrosse 5 rocket 3.9 12:31:05 10° SSE 12:34:24 20° ESE 12:37:46 10° ENE
Cosmos 1689 Rocket 3.5 12:34:58 10° SSE 12:37:45 42° ENE 12:40:31 10° N
SAR-Lupe-1 4.1 12:37:02 10° S 12:40:33 60° WSW 12:44:05 10° NNW
H-2A R/B 3.5 12:38:29 10° SW 12:40:59 16° W 12:43:28 10° WNW
ADEOS 3.8 12:36:01 10° N 12:41:06 54° WNW 12:46:09 10° SSW
CZ-4B R/B 1.7 12:41:39 10° S 12:44:48 42° W 12:47:54 10° NNW
OAO 2 Rocket 3.5 12:42:08 10° WSW 12:47:26 89° SSE 12:52:38 10° E
In-Cosmos 22 Rocket 4.4 12:41:44 10° N 12:47:36 89° W 12:53:22 10° S
